Weather reports worldwide

Advertisment
Kleine Brogel, Belgium (6479): temperature & dewpoint: 17.10.2017 04:00:00 - 23.10.2017 04:00:00 (CEST)Kleine Brogel, Belgium (6479): wind speed & gusts: 17.10.2017 04:00:00 - 23.10.2017 04:00:00 (CEST)Kleine Brogel, Belgium (6479): wind direction: 17.10.2017 04:00:00 - 23.10.2017 04:00:00 (CEST)Kleine Brogel, Belgium (6479): reduced air pressure: 17.10.2017 04:00:00 - 23.10.2017 04:00:00 (CEST)Kleine Brogel, Belgium (6479): visibility: 17.10.2017 04:00:00 - 23.10.2017 04:00:00 (CEST)
Date & Time tt [°C] td [°C] ff [km/h] ff [kn] fx [km/h] fx [kn] dd ppp [hPa] vv [km]
23.10.2017 04:00:00 9,6 6,6 15 8 22 12 WSW 1017,2 10
23.10.2017 03:00:00 9,1 6,4 15 8 25 14 SW 1016,7 10
23.10.2017 02:00:00 9,2 6,2 13 7 - - SW 1016,7 10
23.10.2017 01:00:00 9,1 6,2 15 8 22 12 SW 1016,7 10
23.10.2017 00:00:00 8,5 6,2 13 7 22 12 SW 1016,6 10
22.10.2017 23:00:00 8,8 6,7 13 7 - - SW 1016,2 10
22.10.2017 22:00:00 9,0 6,6 16 9 25 14 SW 1015,8 10
22.10.2017 21:00:00 9,1 7,0 18 10 29 16 WSW 1015,6 10
22.10.2017 20:00:00 9,0 7,8 13 7 - - WSW 1015,1 10
22.10.2017 19:00:00 9,0 8,3 13 7 18 10 WSW 1014,7 10
22.10.2017 18:00:00 9,5 8,2 18 10 43 23 W 1014,2 10
22.10.2017 17:00:00 11,6 6,2 31 17 - - WSW 1013,5 10
22.10.2017 16:00:00 11,3 7,0 29 16 47 25 W 1012,8 10
22.10.2017 15:00:00 13,6 7,2 29 16 43 23 WSW 1012,0 10
22.10.2017 14:00:00 11,8 7,6 28 15 - - WSW 1011,8 10
22.10.2017 13:00:00 12,0 8,5 26 14 40 21 WSW 1011,7 10
22.10.2017 12:00:00 11,4 9,4 24 13 36 19 WSW 1011,2 10
22.10.2017 11:00:00 9,8 9,0 24 13 - - SW 1011,1 10
22.10.2017 10:00:00 9,5 8,6 26 14 47 25 SW 1010,7 10
22.10.2017 09:00:00 9,3 8,4 26 14 47 25 SW 1010,2 10
22.10.2017 08:00:00 9,3 8,5 28 15 - - SW 1009,7 8
22.10.2017 07:00:00 9,1 8,4 28 15 43 23 SW 1009,3 10
22.10.2017 06:00:00 9,0 8,5 26 14 47 25 SW 1009,2 5
22.10.2017 05:00:00 8,8 8,4 22 12 - - SSW 1009,2 5
22.10.2017 04:00:00 11,1 6,6 29 16 50 27 SSW 1009,5 10
22.10.2017 03:00:00 11,0 6,2 24 13 40 21 SSW 1010,0 10
22.10.2017 02:00:00 11,0 6,3 22 12 - - SSW 1010,2 10
22.10.2017 01:00:00 11,2 6,4 21 11 32 18 SSW 1010,7 10
22.10.2017 00:00:00 11,6 6,4 21 11 40 21 SW 1010,8 10
21.10.2017 23:00:00 12,8 6,6 24 13 - - SW 1010,7 10
21.10.2017 22:00:00 12,6 8,5 16 9 32 18 SSW 1010,5 10
21.10.2017 21:00:00 12,9 8,9 11 6 25 14 SSW 1010,6 20
21.10.2017 20:00:00 13,3 7,8 9 5 - - SSW 1010,6 10
21.10.2017 19:00:00 13,6 7,7 9 5 36 19 SSW 1010,2 10
21.10.2017 18:00:00 15,5 7,5 18 10 36 19 SW 1010,2 10
21.10.2017 17:00:00 16,2 7,0 22 12 - - SW 1010,3 10
21.10.2017 16:00:00 17,3 7,4 31 17 47 25 SW 1010,3 10
21.10.2017 15:00:00 16,6 9,8 24 13 47 25 SW 1010,2 10
21.10.2017 14:00:00 16,8 9,4 34 18 - - SW 1010,3 10
21.10.2017 13:00:00 16,7 13,8 15 8 29 16 SSW 1010,2 10
21.10.2017 12:00:00 15,3 13,8 16 9 25 14 SW 1010,7 10
21.10.2017 11:00:00 14,3 13,4 16 9 - - SSW 1010,6 10
21.10.2017 10:00:00 13,3 12,9 13 7 25 14 SSW 1010,2 10
21.10.2017 09:00:00 12,1 11,5 13 7 25 14 SSW 1010,3 8
21.10.2017 08:00:00 12,5 9,6 15 8 - - SSW 1010,2 2,6
21.10.2017 07:00:00 12,1 8,6 13 7 29 16 SSW 1010,2 10
21.10.2017 06:00:00 11,3 7,8 11 6 18 10 S 1010,6 10
21.10.2017 05:00:00 11,5 7,6 8 4 - - S 1011,3 10
21.10.2017 04:00:00 11,6 7,6 9 5 18 10 S 1012,2 10
21.10.2017 03:00:00 10,8 7,4 8 4 14 8 S 1012,8 10
21.10.2017 02:00:00 11,3 7,3 8 4 - - S 1013,2 10
21.10.2017 01:00:00 11,1 6,9 8 4 18 10 SSW 1013,3 10
21.10.2017 00:00:00 10,9 6,6 11 6 22 12 SSW 1013,6 10
20.10.2017 23:00:00 10,6 6,8 11 6 - - SSW 1013,7 10
20.10.2017 22:00:00 11,3 7,1 11 6 29 16 SSW 1013,7 10
20.10.2017 21:00:00 13,3 7,4 21 11 32 18 SW 1013,2 10
20.10.2017 20:00:00 13,0 7,8 18 10 - - SW 1013,0 10
20.10.2017 19:00:00 13,3 7,9 24 13 43 23 SW 1012,3 10
20.10.2017 18:00:00 13,8 7,8 24 13 40 21 SW 1011,6 10
20.10.2017 17:00:00 13,8 8,7 28 15 - - SW 1011,3 10
20.10.2017 16:00:00 13,8 9,1 29 16 47 25 SW 1010,7 10
20.10.2017 15:00:00 14,1 8,9 26 14 50 27 SW 1010,5 10
20.10.2017 14:00:00 14,1 8,9 35 19 - - SW 1010,2 10
20.10.2017 13:00:00 14,9 8,7 31 17 54 29 SW 1009,8 10
20.10.2017 12:00:00 14,9 8,5 29 16 58 31 SSW 1009,3 10
20.10.2017 11:00:00 14,6 9,9 22 12 - - SW 1008,8 10
20.10.2017 10:00:00 14,5 11,3 22 12 40 21 SW 1008,2 10
20.10.2017 09:00:00 13,9 12,7 16 9 29 16 SSW 1007,3 10
20.10.2017 08:00:00 14,7 12,5 15 8 - - SSW 1006,3 10
20.10.2017 07:00:00 15,8 11,2 9 5 18 10 S 1006,1 10
20.10.2017 06:00:00 16,0 10,9 8 4 22 12 SSE 1006,7 10
20.10.2017 05:00:00 17,1 10,6 9 5 - - S 1007,3 10
20.10.2017 04:00:00 16,7 10,7 9 5 18 10 S 1007,5 10
20.10.2017 03:00:00 16,7 10,9 9 5 22 12 S 1007,8 10
20.10.2017 02:00:00 17,1 11,2 8 4 - - S 1008,2 10
20.10.2017 01:00:00 16,6 11,7 8 4 14 8 SSE 1008,1 10
20.10.2017 00:00:00 16,2 12,3 4 2 14 8 - 1008,1 10
19.10.2017 23:00:00 17,0 12,7 5 3 - - SE 1008,3 10
19.10.2017 22:00:00 16,6 12,9 8 4 11 6 SSE 1008,5 10
19.10.2017 21:00:00 17,5 13,1 5 3 11 6 SSE 1008,7 10
19.10.2017 20:00:00 19,2 13,3 5 3 - - SSE 1008,7 10
19.10.2017 19:00:00 19,3 13,0 4 2 11 6 - 1008,7 10
19.10.2017 18:00:00 20,2 13,4 5 3 14 8 S 1008,5 10
19.10.2017 17:00:00 20,6 13,4 5 3 - - S 1008,6 10
19.10.2017 16:00:00 21,2 13,1 8 4 18 10 S 1008,7 10
19.10.2017 15:00:00 20,8 12,6 9 5 18 10 SSE 1009,2 10
19.10.2017 14:00:00 21,0 12,3 9 5 - - SSE 1010,1 10
19.10.2017 13:00:00 20,5 12,5 9 5 22 12 SSE 1010,6 10
19.10.2017 12:00:00 18,8 12,7 5 3 14 8 SE 1011,0 10
19.10.2017 11:00:00 16,7 11,9 5 3 - - SE 1011,5 10
19.10.2017 10:00:00 14,1 11,7 4 2 7 4 - 1011,8 10
19.10.2017 09:00:00 10,6 10,3 2 1 4 2 - 1011,7 8
19.10.2017 08:00:00 10,2 9,8 2 1 - - - 1011,5 6
19.10.2017 07:00:00 10,3 9,9 4 2 4 2 - 1011,6 10
19.10.2017 06:00:00 10,2 9,7 2 1 4 2 - 1011,7 10
19.10.2017 05:00:00 11,3 10,7 2 1 - - - 1012,2 6
19.10.2017 04:00:00 11,3 10,7 2 1 4 2 - 1012,3 2,8
19.10.2017 03:00:00 13,0 11,4 2 1 7 4 - 1012,6 10
19.10.2017 02:00:00 13,6 12,0 4 2 - - - 1012,6 10
19.10.2017 01:00:00 14,1 12,5 4 2 7 4 - 1012,8 10
19.10.2017 00:00:00 14,8 12,8 2 1 7 4 - 1012,8 10
18.10.2017 23:00:00 13,6 12,7 4 2 - - - 1012,8 3,4
18.10.2017 22:00:00 13,1 12,1 2 1 4 2 - 1012,7 6
18.10.2017 21:00:00 14,6 13,2 2 1 7 4 - 1012,7 3,0
18.10.2017 20:00:00 15,0 13,6 5 3 - - S 1012,5 3,2
18.10.2017 19:00:00 15,9 13,7 2 1 7 4 - 1012,2 10
18.10.2017 18:00:00 19,1 13,7 4 2 11 6 - 1012,2 10
18.10.2017 17:00:00 21,1 13,7 5 3 - - SW 1012,1 10
18.10.2017 16:00:00 21,1 12,9 9 5 14 8 SSW 1012,3 10
18.10.2017 15:00:00 21,3 13,1 7 4 18 10 SW 1012,5 15
18.10.2017 14:00:00 20,0 11,8 8 4 - - SW 1012,8 10
18.10.2017 13:00:00 18,6 11,4 11 6 18 10 SW 1013,5 10
18.10.2017 12:00:00 17,1 11,5 9 5 14 8 SSW 1013,6 10
18.10.2017 11:00:00 13,1 12,7 4 2 - - - 1014,1 10
18.10.2017 10:00:00 11,4 11,4 2 1 7 4 - 1014,3 0,5
18.10.2017 09:00:00 11,0 10,9 4 2 11 6 - 1014,2 0,2
18.10.2017 08:00:00 11,5 11,5 5 3 - - E 1014,1 0,2
18.10.2017 07:00:00 12,0 11,9 5 3 11 6 ENE 1014,3 0,4
18.10.2017 06:00:00 12,1 12,0 5 3 11 6 NE 1014,7 2,5
18.10.2017 05:00:00 11,6 11,6 8 4 - - NE 1015,1 2,0
18.10.2017 04:00:00 10,8 10,5 8 4 7 4 NE 1015,2 2,4
18.10.2017 03:00:00 11,2 11,0 2 1 7 4 - 1015,7 3,6
18.10.2017 02:00:00 11,8 11,2 4 2 - - - 1016,2 6
18.10.2017 01:00:00 12,6 11,6 5 3 11 6 E 1017,0 4,4
18.10.2017 00:00:00 13,6 12,1 5 3 11 6 E 1017,5 10
17.10.2017 23:00:00 13,3 12,4 8 4 - - NNE 1018,1 9
17.10.2017 22:00:00 12,4 11,8 4 2 4 2 - 1018,2 8
17.10.2017 21:00:00 12,1 11,5 4 2 4 2 - 1018,7 10
17.10.2017 20:00:00 12,6 11,9 4 2 - - - 1019,2 10
17.10.2017 19:00:00 13,9 12,4 2 1 7 4 - 1019,2 10
17.10.2017 18:00:00 16,0 13,1 4 2 7 4 - 1019,3 10
17.10.2017 17:00:00 17,6 12,8 2 1 - - - 1019,7 10
17.10.2017 16:00:00 17,8 13,0 5 3 11 6 WSW 1020,2 10
17.10.2017 15:00:00 17,8 12,8 5 3 11 6 W 1021,0 10
17.10.2017 14:00:00 17,4 12,5 8 4 - - WSW 1021,7 10
17.10.2017 13:00:00 17,0 11,9 9 5 14 8 WSW 1022,3 10
17.10.2017 12:00:00 16,3 12,0 9 5 11 6 W 1022,6 10
17.10.2017 11:00:00 15,4 13,1 8 4 - - SW 1022,7 10
17.10.2017 10:00:00 14,2 13,1 5 3 7 4 SSW 1022,7 8
17.10.2017 09:00:00 14,1 13,2 2 1 7 4 - 1022,7 10
17.10.2017 08:00:00 13,8 13,0 4 2 - - - 1022,6 8
17.10.2017 07:00:00 14,1 12,8 4 2 4 2 - 1022,2 10
17.10.2017 06:00:00 14,6 13,1 4 2 14 8 - 1022,2 10
17.10.2017 05:00:00 13,8 12,7 8 4 - - WSW 1022,1 10
17.10.2017 04:00:00 14,9 12,8 9 5 11 6 WSW 1021,7 10

tt = temperature
td = dewpoint
ff = wind speed
fx = gusts
dd = wind direction
ppp = reduced air pressure
vv = visibility

Next stations